[Show "Revision History"] [Show "General Page Infos"] [Show "Page hits and edits"]

Revision History

Showing page edit history entries from 1 to 43 out of 43 entries total. (5 | 10 | 25 | 50 | 100 | 200 items per page)

# Date Size Editor Comment Action
43 2009-12-15 10:01:50 17271 to previous Vincent Siveton Formatting view
42 2009-12-15 09:58:56 17269 to previous Vincent Siveton add shindig report view
41 2009-12-14 18:40:14 16512 to previous NoelBergman mark report page as closed view
40 2009-12-14 15:30:47 16480 to previous ivysummer   view
39 2009-12-14 13:39:58 15379 to previous MartijnDashorst   view
38 2009-12-14 13:23:55 15442 to previous JukkaZitting Sign off the River report view
37 2009-12-14 13:17:29 15436 to previous MartijnDashorst   view
36 2009-12-14 13:14:53 15427 to previous JukkaZitting   view
35 2009-12-14 13:08:05 15423 to previous JukkaZitting Add minimal report for River view
34 2009-12-14 05:52:22 14682 to previous BrettPorter   view
33 2009-12-13 22:18:10 14676 to previous GavinMcDonald Add a note about Log4PHP release, signed off view
32 2009-12-12 15:23:16 14593 to previous GregStein   view
31 2009-12-11 15:45:48 14582 to previous MatthieuRiou Adding report for HISE (a bit late, sorry) view
30 2009-12-10 19:16:28 14081 to previous JustinErenkrantz   view
29 2009-12-09 23:15:27 13872 to previous antelder   view
28 2009-12-09 23:06:47 13868 to previous antelder   view
27 2009-12-09 23:01:08 13860 to previous HyrumWright Add description of Subversion view
26 2009-12-09 22:59:53 13820 to previous HyrumWright Add Subversion section view
25 2009-12-09 22:21:14 12251 to previous JonathanEllis   view
24 2009-12-09 20:08:21 11640 to previous AlexPolvi   view
23 2009-12-09 14:43:42 10958 to previous JimJagielski   view
22 2009-12-09 14:02:19 10954 to previous KevanMiller   view
21 2009-12-08 13:17:44 10941 to previous DavanumSrinivas   view
20 2009-12-08 10:51:44 10935 to previous RobertBurrellDonkin   view
19 2009-12-08 10:27:49 10586 to previous gnodet   view
18 2009-12-08 09:00:00 10578 to previous BertrandDelacretaz   view
17 2009-12-08 08:59:20 10525 to previous BertrandDelacretaz Aries report view
16 2009-12-08 01:27:52 9755 to previous udanax Add HAMA status report view
15 2009-12-08 00:47:16 9077 to previous ScottComer   view
14 2009-12-07 20:40:52 7881 to previous GurkanErdogdu   view
13 2009-12-04 15:26:47 7145 to previous ChristianGrobmeier   view
12 2009-12-02 18:38:43 6733 to previous BertrandDelacretaz   view
11 2009-12-02 13:35:23 6599 to previous monteith Add report for Kato project. view
10 2009-12-01 16:26:53 5588 to previous GianugoRabellino   view
9 2009-12-01 16:20:16 5579 to previous BertrandDelacretaz   view
8 2009-12-01 16:02:04 5588 to previous RichardHirsch   view
7 2009-12-01 16:00:12 5447 to previous RichardHirsch   view
6 2009-11-28 23:26:02 4200 to previous DavidCrossley new podling Clerezza view
5 2009-11-27 23:43:59 3700 to previous BenDewey   view
4 2009-10-06 06:51:32 889 to previous DavidCrossley Improve the template. view
3 2009-09-20 23:06:08 645 to previous localhost converted to 1.6 markup view
2 2009-09-01 02:59:56 645 to previous DavidCrossley remember the Monthly section view
1 2009-06-25 01:22:28 604 DavidCrossley initial page view